• în România
  • Lista ţărilor
  • Pe 7 zile
  • Temperatura apei
  • Hartă satelitară
  • Meteo pe hartă
  • Widget-uri
  • user-avatar
    Intrare

    Meteo pe oră la Novoterskiy

    Astăzi, 26 Septembrie, Miercuri

    Timp Temperatura Precipitaţii Vânt Presiune Umiditate
    00:00 +18°C° 0.1 mm 4 m/s 731 mmHg 83%
    01:00 +17°C° 0.2 mm 4 m/s 731 mmHg 83%
    02:00 +15°C° 0.2 mm 4 m/s 731 mmHg 83%
    03:00 +13°C° 0 mm 4 m/s 732 mmHg 78%
    04:00 +13°C° 0.1 mm 4 m/s 732 mmHg 77%
    05:00 +13°C° 0.1 mm 3 m/s 732 mmHg 77%
    06:00 +12°C° 0.1 mm 3 m/s 733 mmHg 76%
    07:00 +12°C° 0.1 mm 3 m/s 733 mmHg 77%
    08:00 +13°C° 0.1 mm 2 m/s 733 mmHg 77%
    09:00 +13°C° 0 mm 2 m/s 734 mmHg 78%
    10:00 +13°C° 0.1 mm 2 m/s 734 mmHg 77%
    11:00 +13°C° 0.1 mm 2 m/s 734 mmHg 76%
    12:00 +13°C° 0.1 mm 2 m/s 735 mmHg 76%
    13:00 +13°C° 0 mm 2 m/s 735 mmHg 74%
    14:00 +13°C° 0 mm 2 m/s 735 mmHg 72%
    15:00 +14°C° 0 mm 2 m/s 735 mmHg 70%
    16:00 +13°C° 0 mm 1 m/s 735 mmHg 71%
    17:00 +13°C° 0 mm 1 m/s 735 mmHg 71%
    18:00 +13°C° 0 mm 1 m/s 735 mmHg 72%
    19:00 +13°C° 0 mm 1 m/s 735 mmHg 72%
    20:00 +13°C° 0 mm 1 m/s 736 mmHg 73%
    21:00 +13°C° 0 mm 1 m/s 736 mmHg 73%
    22:00 +12°C° 0 mm 1 m/s 736 mmHg 74%
    23:00 +12°C° 0 mm 1 m/s 736 mmHg 75%

    Mâine, 27 Septembrie, Joi

    Timp Temperatura Precipitaţii Vânt Presiune Umiditate
    00:00 +12°C° 0 mm 1 m/s 736 mmHg 75%
    01:00 +11°C° 0 mm 1 m/s 736 mmHg 76%
    02:00 +11°C° 0 mm 1 m/s 736 mmHg 77%
    03:00 +11°C° 0 mm 1 m/s 736 mmHg 77%
    04:00 +11°C° 0 mm 1 m/s 736 mmHg 77%
    05:00 +11°C° 0 mm 1 m/s 736 mmHg 78%
    06:00 +11°C° 0 mm 1 m/s 736 mmHg 78%
    07:00 +12°C° 0 mm 1 m/s 736 mmHg 74%
    08:00 +13°C° 0 mm 1 m/s 736 mmHg 70%
    09:00 +14°C° 0 mm 2 m/s 736 mmHg 67%
    10:00 +15°C° 0 mm 2 m/s 736 mmHg 62%
    11:00 +16°C° 0 mm 2 m/s 736 mmHg 58%
    12:00 +18°C° 0 mm 3 m/s 735 mmHg 53%
    13:00 +18°C° 0 mm 3 m/s 735 mmHg 53%
    14:00 +19°C° 0 mm 2 m/s 735 mmHg 52%
    15:00 +19°C° 0 mm 2 m/s 735 mmHg 51%
    16:00 +18°C° 0 mm 2 m/s 734 mmHg 56%
    17:00 +17°C° 0 mm 2 m/s 734 mmHg 61%
    18:00 +16°C° 0 mm 1 m/s 734 mmHg 66%
    19:00 +15°C° 0 mm 1 m/s 734 mmHg 69%
    20:00 +15°C° 0 mm 1 m/s 735 mmHg 72%
    21:00 +14°C° 0 mm 1 m/s 735 mmHg 75%
    22:00 +14°C° 0 mm 1 m/s 735 mmHg 76%
    23:00 +14°C° 0 mm 1 m/s 735 mmHg 77%

    Poimâine, 28 Septembrie, Vineri

    Timp Temperatura Precipitaţii Vânt Presiune Umiditate
    00:00 +13°C° 0 mm 1 m/s 735 mmHg 78%
    01:00 +13°C° 0 mm 1 m/s 735 mmHg 78%
    02:00 +13°C° 0 mm 1 m/s 735 mmHg 78%
    03:00 +13°C° 0 mm 1 m/s 735 mmHg 78%
    04:00 +12°C° 0 mm 1 m/s 735 mmHg 78%
    05:00 +12°C° 0 mm 1 m/s 735 mmHg 78%
    06:00 +12°C° 0 mm 1 m/s 735 mmHg 78%
    07:00 +13°C° 0 mm 1 m/s 735 mmHg 72%
    08:00 +15°C° 0 mm 1 m/s 735 mmHg 66%
    09:00 +18°C° 0 mm 1 m/s 735 mmHg 60%
    10:00 +18°C° 0 mm 2 m/s 734 mmHg 56%
    11:00 +20°C° 0 mm 3 m/s 734 mmHg 53%
    12:00 +21°C° 0 mm 3 m/s 734 mmHg 50%
    13:00 +22°C° 0 mm 3 m/s 733 mmHg 49%
    14:00 +22°C° 0 mm 4 m/s 733 mmHg 49%
    15:00 +22°C° 0 mm 4 m/s 733 mmHg 48%
    16:00 +21°C° 0 mm 3 m/s 732 mmHg 53%
    17:00 +20°C° 0 mm 3 m/s 732 mmHg 58%
    18:00 +18°C° 0 mm 3 m/s 732 mmHg 63%
    19:00 +18°C° 0 mm 2 m/s 732 mmHg 64%
    20:00 +17°C° 0 mm 2 m/s 731 mmHg 66%
    21:00 +16°C° 0 mm 2 m/s 731 mmHg 68%
    22:00 +16°C° 0 mm 2 m/s 731 mmHg 70%
    23:00 +16°C° 0 mm 2 m/s 731 mmHg 71%

    29 Septembrie, Sâmbătă

    Timp Temperatura Precipitaţii Vânt Presiune Umiditate
    00:00 +15°C° 0 mm 2 m/s 730 mmHg 72%
    01:00 +15°C° 0 mm 2 m/s 730 mmHg 74%
    02:00 +15°C° 0 mm 1 m/s 730 mmHg 75%
    03:00 +14°C° 0 mm 1 m/s 730 mmHg 77%
    04:00 +14°C° 0 mm 1 m/s 730 mmHg 78%
    05:00 +14°C° 0 mm 1 m/s 730 mmHg 79%
    06:00 +14°C° 0 mm 1 m/s 730 mmHg 80%
    07:00 +16°C° 0 mm 1 m/s 729 mmHg 75%
    08:00 +18°C° 0 mm 1 m/s 729 mmHg 71%
    09:00 +20°C° 0 mm 1 m/s 729 mmHg 67%
    10:00 +20°C° 0 mm 2 m/s 729 mmHg 63%
    11:00 +23°C° 0 mm 2 m/s 729 mmHg 59%
    12:00 +24°C° 0 mm 3 m/s 729 mmHg 56%
    13:00 +24°C° 0 mm 3 m/s 728 mmHg 55%
    14:00 +25°C° 0 mm 3 m/s 728 mmHg 53%
    15:00 +25°C° 0 mm 2 m/s 728 mmHg 52%
    16:00 +24°C° 0 mm 2 m/s 728 mmHg 58%
    17:00 +23°C° 0 mm 2 m/s 728 mmHg 64%
    18:00 +21°C° 0 mm 1 m/s 728 mmHg 70%
    19:00 +21°C° 0 mm 1 m/s 728 mmHg 72%
    20:00 +20°C° 0 mm 1 m/s 728 mmHg 74%
    21:00 +19°C° 0 mm 1 m/s 728 mmHg 77%
    22:00 +19°C° 0 mm 1 m/s 728 mmHg 76%
    23:00 +19°C° 0 mm 1 m/s 728 mmHg 75%

    30 Septembrie, Duminică

    Timp Temperatura Precipitaţii Vânt Presiune Umiditate
    00:00 +19°C° 0 mm 1 m/s 728 mmHg 75%
    01:00 +19°C° 0 mm 1 m/s 728 mmHg 73%
    02:00 +19°C° 0 mm 1 m/s 728 mmHg 71%
    03:00 +17°C° 0 mm 0 m/s 728 mmHg 70%
    04:00 +17°C° 0 mm 0 m/s 728 mmHg 69%
    05:00 +17°C° 0 mm 0 m/s 728 mmHg 68%
    06:00 +17°C° 0 mm 0 m/s 728 mmHg 67%
    07:00 +18°C° 0 mm 0 m/s 728 mmHg 63%
    08:00 +20°C° 0 mm 0 m/s 728 mmHg 58%
    09:00 +22°C° 0 mm 0 m/s 729 mmHg 54%
    10:00 +25°C° 0 mm 1 m/s 729 mmHg 51%
    11:00 +26°C° 0 mm 1 m/s 729 mmHg 48%
    12:00 +27°C° 0 mm 2 m/s 729 mmHg 46%
    13:00 +28°C° 0 mm 2 m/s 728 mmHg 45%
    14:00 +28°C° 0 mm 2 m/s 728 mmHg 44%
    15:00 +28°C° 0 mm 2 m/s 728 mmHg 44%
    16:00 +27°C° 0.1 mm 2 m/s 729 mmHg 49%
    17:00 +25°C° 0.1 mm 2 m/s 729 mmHg 54%
    18:00 +24°C° 0.1 mm 2 m/s 730 mmHg 59%
    19:00 +23°C° 0 mm 2 m/s 730 mmHg 62%
    20:00 +21°C° 0 mm 2 m/s 730 mmHg 65%
    21:00 +21°C° 0 mm 2 m/s 731 mmHg 68%
    22:00 +20°C° 0 mm 2 m/s 731 mmHg 70%
    23:00 +19°C° 0 mm 2 m/s 731 mmHg 71%

    1 Octombrie, Luni

    Timp Temperatura Precipitaţii Vânt Presiune Umiditate
    00:00 +19°C° 0 mm 3 m/s 731 mmHg 73%
    01:00 +18°C° 0 mm 3 m/s 731 mmHg 74%
    02:00 +17°C° 0 mm 4 m/s 731 mmHg 75%
    03:00 +17°C° 0 mm 4 m/s 731 mmHg 76%
    04:00 +15°C° 0 mm 4 m/s 731 mmHg 76%
    05:00 +15°C° 0 mm 4 m/s 731 mmHg 76%
    06:00 +15°C° 0 mm 5 m/s 731 mmHg 76%
    07:00 +15°C° 0 mm 5 m/s 731 mmHg 73%
    08:00 +16°C° 0 mm 5 m/s 731 mmHg 71%
    09:00 +16°C° 0 mm 6 m/s 731 mmHg 68%
    10:00 +19°C° 0 mm 6 m/s 730 mmHg 66%
    11:00 +20°C° 0 mm 6 m/s 730 mmHg 63%
    12:00 +21°C° 0 mm 6 m/s 730 mmHg 61%
    13:00 +22°C° 0 mm 7 m/s 730 mmHg 61%
    14:00 +22°C° 0 mm 7 m/s 730 mmHg 62%
    15:00 +22°C° 0 mm 7 m/s 729 mmHg 63%
    16:00 +22°C° 0 mm 7 m/s 730 mmHg 66%
    17:00 +21°C° 0 mm 6 m/s 730 mmHg 70%
    18:00 +20°C° 0 mm 6 m/s 730 mmHg 73%
    19:00 +19°C° 0 mm 6 m/s 730 mmHg 75%
    20:00 +19°C° 0 mm 6 m/s 730 mmHg 77%
    21:00 +17°C° 0 mm 7 m/s 730 mmHg 79%
    22:00 +17°C° 0 mm 6 m/s 730 mmHg 80%
    23:00 +17°C° 0 mm 6 m/s 729 mmHg 81%
    Arată mai mult